GLOBALSTAR M039 [-]

Last updated on Fri Dec 29 2023 00:02:56 GMT+0000 (Coordinated Universal Time)

1 25961U 99062A 23361.67972143 -.00000079 00000+0 13748-3 0 9995 2 25961 51.9847 105.7887 0002473 218.9881 141.0807 12.62277973112335
UTC large
Height (km)
Speed (km/s)
/
Latitude / Longitude
Inclination (degrees)
Orbital Period (minutes)
Azimuth
Elevation
Range (km)
Doppler Factor

Next 0 passes for location: London (51.5072 / 0.1276)

Sorry there are no passes over London.